Tracking 28514 objects as of 23-Feb-2024
HD Live streaming from Space Station
objects crossing your sky now

STARLINK-1423

Track STARLINK-1423 now!
10-day predictions
STARLINK-1423 is classified as:


NORAD ID: 45710
Int'l Code: 2020-035BF
Perigee: 553.1 km
Apogee: 555.4 km
Inclination: 53.1 °
Period: 95.6 minutes
Semi major axis: 6925 km
RCS: Unknown
Launch date: June 4, 2020
Source: United States (US)
Launch site: AIR FORCE EASTERN TEST RANGE (AFETR)
Your satellite tracking list
Your tracking list is empty




NASA's NSSDC Master Catalog

Two Line Element Set (TLE):
1 45710U 20035BF  24053.56302846  .00012075  00000-0  82740-3 0  9994
2 45710  53.0546 146.1100 0001714  74.4608 285.6570 15.06433596206695
Source of the keplerian elements: AFSPC